Location: Newark
(44.3681°N, 100.3364°W)
Time: 06:22:11
(UTC+00:00)

Tiros 1 despin weight - Visible Passes

Search period start: 24 February 2020 00:00
Search period end: 05 March 2020 00:00
Orbit: 594 x 642 km, 48.2° (Epoch: 23 February)

Date Brightness Start Highest point End Pass type
(mag) Time Alt. Az. Time Alt. Az. Time Alt. Az.
24 Feb ? 10:56:09 49° E 10:56:09 49° E 10:59:26 10° ESE visible
24 Feb ? 12:33:13 15° W 12:36:19 32° SW 12:40:15 10° SSE visible
25 Feb ? 11:12:12 60° SSE 11:12:12 60° SSE 11:15:58 10° ESE visible
25 Feb ? 12:49:35 10° W 12:52:33 18° SW 12:55:33 10° S visible
26 Feb ? 11:28:22 42° SSW 11:28:22 42° SSW 11:32:11 10° SE visible
27 Feb ? 11:44:40 25° SSW 11:44:40 25° SSW 11:47:55 10° SSE visible
28 Feb ? 12:01:05 13° SW 12:01:05 13° SW 12:02:42 10° SSW visible
03 Mar ? 02:53:35 10° SSW 02:54:26 15° SSW 02:54:26 15° SSW visible
04 Mar ? 01:30:59 10° SSE 01:33:12 13° SE 01:34:01 13° ESE visible
04 Mar ? 03:09:36 10° SW 03:11:07 20° SW 03:11:07 20° SW visible
